TimeCST,TemperatureF,Dew PointF,Humidity,Sea Level PressureIn,VisibilityMPH,Wind Direction,Wind SpeedMPH,Gust SpeedMPH,PrecipitationIn,Events,Conditions,WindDirDegrees,DateUTC
12:54 AM,48.0,42.1,80,30.13,10.0,South,8.1,-,0.01,,Mostly Cloudy,180,2013-01-28 06:54:00
1:54 AM,48.0,42.1,80,30.13,10.0,South,6.9,-,0.01,,Overcast,170,2013-01-28 07:54:00
2:54 AM,48.9,41.0,74,30.12,10.0,South,9.2,-,N/A,,Overcast,180,2013-01-28 08:54:00
3:54 AM,50.0,39.9,68,30.10,10.0,South,13.8,21.9,N/A,,Overcast,170,2013-01-28 09:54:00
4:54 AM,50.0,39.0,66,30.09,10.0,South,12.7,-,0.01,,Mostly Cloudy,180,2013-01-28 10:54:00
5:54 AM,51.1,39.9,66,30.09,10.0,South,9.2,20.7,N/A,,Overcast,190,2013-01-28 11:54:00
6:12 AM,51.8,41.0,67,30.08,10.0,South,11.5,19.6,N/A,,Overcast,190,2013-01-28 12:12:00
6:22 AM,51.8,41.0,67,30.08,10.0,South,9.2,-,N/A,,Overcast,180,2013-01-28 12:22:00
6:54 AM,50.0,43.0,77,30.10,4.0,SW,6.9,-,0.02,Rain,Heavy Rain,220,2013-01-28 12:54:00
7:54 AM,51.1,45.0,80,30.11,10.0,South,8.1,-,0.09,Rain,Light Rain,190,2013-01-28 13:54:00
8:54 AM,52.0,46.9,83,30.11,9.0,SSW,10.4,-,0.01,,Overcast,200,2013-01-28 14:54:00
9:02 AM,51.8,48.2,88,30.11,9.0,SSW,11.5,20.7,N/A,,Overcast,200,2013-01-28 15:02:00
9:54 AM,53.1,48.9,86,30.11,8.0,SSW,13.8,-,N/A,,Overcast,200,2013-01-28 15:54:00
10:54 AM,55.0,50.0,83,30.10,7.0,SSW,18.4,24.2,0.01,,Overcast,200,2013-01-28 16:54:00
11:54 AM,55.9,51.1,84,30.08,7.0,SSW,18.4,25.3,0.01,Rain,Light Rain,210,2013-01-28 17:54:00
12:54 PM,55.9,52.0,87,30.06,8.0,SSW,12.7,-,0.01,,Overcast,210,2013-01-28 18:54:00
1:54 PM,57.0,53.1,87,30.04,7.0,SSW,12.7,-,0.01,,Overcast,210,2013-01-28 19:54:00
2:54 PM,57.0,53.1,87,30.05,6.0,SSW,11.5,-,0.01,,Overcast,210,2013-01-28 20:54:00
3:42 PM,57.2,53.6,88,30.04,6.0,SSW,8.1,-,N/A,,Overcast,200,2013-01-28 21:42:00
3:54 PM,57.9,53.1,84,30.04,6.0,SSW,6.9,-,N/A,,Haze,200,2013-01-28 21:54:00
4:54 PM,57.9,54.0,87,30.05,6.0,South,6.9,-,0.01,,Overcast,190,2013-01-28 22:54:00
5:41 PM,59.0,53.6,82,30.06,8.0,SSW,6.9,-,N/A,,Overcast,200,2013-01-28 23:41:00
5:54 PM,59.0,54.0,83,30.06,7.0,SSW,8.1,-,N/A,,Overcast,200,2013-01-28 23:54:00
6:54 PM,57.9,54.0,87,30.05,7.0,SSE,6.9,-,0.01,,Overcast,160,2013-01-29 00:54:00
7:54 PM,57.9,54.0,87,30.04,9.0,SE,6.9,-,N/A,,Overcast,140,2013-01-29 01:54:00
8:54 PM,57.0,53.1,87,30.04,8.0,SE,4.6,-,N/A,,Overcast,140,2013-01-29 02:54:00
9:54 PM,57.9,52.0,81,30.04,10.0,South,6.9,-,N/A,,Overcast,170,2013-01-29 03:54:00
10:54 PM,57.9,51.1,78,30.04,10.0,South,6.9,-,N/A,,Clear,170,2013-01-29 04:54:00
11:54 PM,57.0,51.1,81,30.04,10.0,South,8.1,-,N/A,,Clear,180,2013-01-29 05:54:00